[[{"header":{"parameterUnit":"m.s-1","parameterCategory":1,"la1":30.2991,"la2":30.254,"lo1":-89.0895,"lo2":-89.0444,"dy":0.0017,"dx":0.0017,"nx":28,"ny":28,"refTime":"2025-04-13T21:00:00:Z","depth":0,"parameterNumber":2,"parameterNumberName":"U-component_of_WINDS"},"data":[0,0,0,0,0,0,0,0,0,0,0,0,0,0,0,0,0,0,0,0,0,0,0,0,0,0,0,0,0,0,0,0,0,0,0,0,0,0,0,0,0,0,0,0,0,0,0,0,0,0,0,0,0,0,0,0,0,0,0.2258,0.2259,0,0.2345,0.2346,0.2347,0.2327,0.2325,0.2323,0.2322,0.2419,0.2423,0.2427,0,0,0,0,0,0,0,0,0,0,0,0,0,0.2087,0.209,0.2258,0.2259,0.226,0.2344,0.2346,0.2347,0.2327,0.2325,0.2323,0.2321,0.2418,0.2423,0.2428,0,0,0,0,0,0,0,0,0,0,0,0,0,0.2166,0.2091,0.2258,0.226,0.2261,0.2344,0.2346,0.2347,0.2327,0.2325,0.2322,0.232,0.2416,0.2422,0.2429,0.2517,0,0,0.2448,0.245,0,0,0,0,0,0,0,0,0.2162,0.2172,0.2259,0.226,0.2262,0.2322,0.2321,0.2404,0.2328,0.2303,0.2322,0.2319,0.239,0.2398,0.242,0.2522,0.2526,0.2448,0.2452,0.2455,0.2456,0,0,0,0,0,0,0,0.2156,0.2169,0.2293,0.226,0.2262,0.2261,0.2269,0.2337,0.236,0.2305,0.2303,0.2313,0.239,0.2414,0.2422,0.2527,0.2448,0.2453,0.2457,0.246,0.2711,0.2714,0,0,0,0,0,0,0.2148,0.2164,0.229,0.2295,0.2204,0.2266,0.2275,0.2305,0.2359,0.2364,0.2316,0.2312,0.2404,0.2415,0.2425,0.2536,0.2454,0.246,0.2464,0.2708,0.2712,0.2715,0,0,0,0,0,0,0.2144,0.2159,0.2286,0.2229,0.2245,0.2271,0.2305,0.2308,0.2332,0.2367,0.2372,0.2335,0.2403,0.2417,0.2495,0.2539,0.2463,0.2469,0.2705,0.2709,0.2714,0.2757,0,0,0,0,0,0,0.214,0.2158,0.219,0.223,0.2248,0.2351,0.2308,0.2312,0.2342,0.2339,0.2386,0.2392,0.2402,0.2486,0.2501,0.2547,0.2474,0.2701,0.2707,0.2712,0.2752,0.2762,0.2771,0,0,0,0,0,0.2134,0.2199,0.2191,0.2206,0.2288,0.2354,0.2365,0.2372,0.2345,0.238,0.2402,0.2391,0.2531,0.2494,0.2511,0.2559,0.2698,0.2705,0.2712,0.2747,0.276,0.2771,0,0,0,0,0,0,0.2166,0.2204,0.2196,0.2276,0.2312,0.235,0.2393,0.2385,0.2431,0.2427,0.2437,0.2448,0.2529,0.2551,0.2509,0.265,0.2612,0.2622,0.2633,0.2645,0.2655,0.265,0.2479,0,0,0,0,0,0.2182,0.2229,0.2261,0.2329,0.2347,0.2367,0.2396,0.2399,0.2437,0.2453,0.2481,0.2522,0.2576,0.2611,0.2662,0.2754,0.2767,0.2796,0.2805,0.2813,0.2823,0.2879,0.2893,0.2737,0.2737,0.2737,0,0,0.2216,0.2243,0.2273,0.2336,0.2364,0.2417,0.238,0.2436,0.2477,0.2463,0.2539,0.2561,0.2607,0.2694,0.2733,0.2715,0.2869,0.2822,0.2828,0.2834,0.2887,0.2902,0.2915,0.2741,0.2741,0.274,0,0,0.2307,0.233,0.2391,0.2419,0.2461,0.2474,0.2489,0.2529,0.2543,0.2618,0.261,0.266,0.2751,0.2785,0.2815,0.2921,0.2914,0.2937,0.299,0.3044,0.3056,0.3067,0.311,0.3125,0.2946,0.2946,0.2946,0,0.2346,0.2422,0.2424,0.2482,0.2513,0.2499,0.2563,0.2592,0.265,0.2673,0.265,0.2767,0.2796,0.2893,0.2919,0.2942,0.2963,0.2933,0.3053,0.3065,0.3075,0.3116,0.3132,0.2949,0.2949,0.2949,0.2948,0,0.247,0.2523,0.2567,0.2622,0.2656,0.2718,0.2733,0.2769,0.2769,0.2785,0.2866,0.2901,0.2961,0.2983,0.2984,0.3082,0.307,0.305,0.3013,0.3093,0.3132,0.3147,0.2953,0.2952,0.2952,0.2951,0,0,0.2585,0.2639,0.2656,0.2682,0.2728,0.2771,0.2833,0.2889,0.2922,0.2963,0.3019,0.3097,0.308,0.3114,0.3118,0.3165,0.3253,0.3141,0.3142,0.3165,0.3369,0.3387,0.3404,0.3247,0.325,0.3252,0.3367,0,0.2683,0.279,0.2794,0.2893,0.2946,0.2934,0.2989,0.3025,0.3043,0.3093,0.3113,0.317,0.3141,0.3162,0.3207,0.3232,0.3295,0.3224,0.3305,0.3307,0.3298,0.3424,0.3442,0.3548,0.3381,0.3384,0.3386,0,0.2812,0.2855,0.2959,0.3,0.3022,0.3071,0.3125,0.317,0.3213,0.3223,0.3261,0.326,0.3329,0.3286,0.3384,0.3335,0.3369,0.3387,0.3391,0.3403,0.3355,0.3444,0.3582,0.36,0.3409,0.3407,0.3405,0,0.2892,0.2976,0.3049,0.3071,0.312,0.3156,0.3178,0.3218,0.3252,0.33,0.3324,0.338,0.3412,0.3457,0.3473,0.3439,0.3573,0.3529,0.3588,0.3588,0.362,0.3618,0.377,0.3633,0.3633,0.3632,0.3632,0,0.3004,0.307,0.3086,0.3132,0.3207,0.3212,0.3287,0.3308,0.3344,0.3397,0.339,0.3441,0.3456,0.3511,0.3524,0.3607,0.362,0.3634,0.3638,0.3637,0.3636,0.3663,0.3658,0.3637,0.3636,0.3635,0.3634,0,0.3108,0.312,0.3201,0.324,0.3252,0.3305,0.3341,0.3387,0.3403,0.3471,0.3488,0.3515,0.3579,0.3598,0.3676,0.3685,0.3784,0.3778,0.3769,0.3771,0.3829,0.3826,0.4008,0.4034,0.3875,0.3876,0.3877,0,0.318,0.323,0.3274,0.3308,0.3331,0.3386,0.3421,0.3429,0.3467,0.352,0.3562,0.3625,0.3676,0.3781,0.381,0.3871,0.3871,0.393,0.388,0.388,0.3878,0.3877,0.3885,0.3941,0.3943,0.3944,0.3945,0,0.331,0.3314,0.3363,0.3416,0.3457,0.3499,0.354,0.3569,0.3584,0.3628,0.3692,0.3732,0.3811,0.3876,0.3938,0.3966,0.3961,0.396,0.3978,0.3981,0.3975,0.3984,0.38,0.3957,0.3956,0.3955,0.3954,0.3954,0.3404,0.3449,0.3488,0.3544,0.3575,0.3614,0.366,0.3682,0.3735,0.3799,0.3801,0.3873,0.3918,0.4001,0.4032,0.4091,0.4074,0.4098,0.4106,0.4113,0.412,0.3961,0.4102,0.4101,0.4101,0.4101,0.4101,0,0.3538,0.3562,0.3613,0.367,0.3715,0.3701,0.3746,0.3787,0.3848,0.3889,0.394,0.4017,0.408,0.4114,0.4178,0.422,0.422,0.4237,0.4237,0.4245,0.4129,0.4109,0.4237,0.4237,0.4236,0.4236,0.4236,0.4236,0.3613,0.3691,0.37,0.3794,0.3819,0.3887,0.3914,0.3952,0.3985,0.407,0.4122,0.4142,0.4183,0.425,0.4309,0.4318,0.4345,0.4365,0.4373,0.4266,0.4252,0.4239,0.4221,0.4369,0.437,0.4485,0.4486,0.4486]},{"header":{"parameterUnit":"m.s-1","parameterCategory":1,"la1":30.2991,"la2":30.254,"lo1":-89.0895,"lo2":-89.0444,"dy":0.0017,"dx":0.0017,"nx":28,"ny":28,"refTime":"2025-04-13T21:00:00:Z","depth":0,"parameterNumber":3,"parameterNumberName":"V-component_of_WINDS"},"data":[0,0,0,0,0,0,0,0,0,0,0,0,0,0,0,0,0,0,0,0,0,0,0,0,0,0,0,0,0,0,0,0,0,0,0,0,0,0,0,0,0,0,0,0,0,0,0,0,0,0,0,0,0,0,0,0,0,0,-4.2133,-4.2134,0,-4.2198,-4.2198,-4.2199,-4.2227,-4.2227,-4.2227,-4.2227,-4.2288,-4.229,-4.2291,0,0,0,0,0,0,0,0,0,0,0,0,0,-4.2032,-4.2034,-4.2133,-4.2134,-4.2135,-4.2198,-4.2199,-4.2199,-4.2227,-4.2227,-4.2227,-4.2227,-4.2287,-4.2289,-4.2291,0,0,0,0,0,0,0,0,0,0,0,0,0,-4.2084,-4.2034,-4.2133,-4.2156,-4.2159,-4.2197,-4.2199,-4.22,-4.2227,-4.2227,-4.2227,-4.2227,-4.2287,-4.2289,-4.2292,-4.231,0,0,-4.2299,-4.2301,0,0,0,0,0,0,0,0,-4.2081,-4.2088,-4.2152,-4.2155,-4.2158,-4.2205,-4.2185,-4.2236,-4.2227,-4.2201,-4.2227,-4.2227,-4.226,-4.2265,-4.2277,-4.2313,-4.2315,-4.23,-4.2301,-4.2302,-4.2303,0,0,0,0,0,0,0,-4.2077,-4.2085,-4.2158,-4.2153,-4.2157,-4.2163,-4.217,-4.2195,-4.223,-4.2204,-4.2206,-4.2213,-4.2261,-4.2274,-4.2278,-4.2316,-4.23,-4.2302,-4.2303,-4.2304,-4.2373,-4.2374,0,0,0,0,0,0,-4.207,-4.2082,-4.2156,-4.216,-4.2119,-4.2165,-4.2173,-4.219,-4.223,-4.2236,-4.2213,-4.2214,-4.227,-4.2275,-4.2281,-4.2307,-4.2302,-4.2305,-4.2306,-4.2373,-4.2373,-4.2374,0,0,0,0,0,0,-4.2068,-4.2077,-4.2154,-4.2122,-4.2132,-4.2167,-4.2185,-4.2191,-4.2204,-4.2238,-4.2244,-4.222,-4.227,-4.2277,-4.2304,-4.2309,-4.2306,-4.2308,-4.2373,-4.2373,-4.2374,-4.2357,0,0,0,0,0,0,-4.2065,-4.2076,-4.2083,-4.2122,-4.2134,-4.2176,-4.2186,-4.2192,-4.2209,-4.2211,-4.2246,-4.2251,-4.2271,-4.23,-4.2306,-4.2312,-4.231,-4.2372,-4.2373,-4.2374,-4.2357,-4.2357,-4.2357,0,0,0,0,0,-4.2061,-4.2074,-4.2083,-4.2092,-4.2144,-4.2176,-4.2183,-4.2207,-4.2209,-4.2217,-4.2239,-4.225,-4.2308,-4.2302,-4.2309,-4.2317,-4.2372,-4.2373,-4.2373,-4.2357,-4.2357,-4.2357,0,0,0,0,0,0,-4.2032,-4.2079,-4.209,-4.2116,-4.2142,-4.2181,-4.2191,-4.2205,-4.2229,-4.223,-4.2257,-4.2264,-4.2289,-4.2305,-4.2298,-4.2338,-4.2341,-4.2343,-4.2326,-4.2326,-4.2326,-4.2321,-4.2312,0,0,0,0,0,-4.2029,-4.2052,-4.2092,-4.2111,-4.2124,-4.2156,-4.217,-4.2187,-4.2214,-4.2225,-4.2249,-4.2274,-4.2298,-4.2313,-4.2337,-4.2361,-4.2369,-4.237,-4.2369,-4.2369,-4.237,-4.2386,-4.2387,-4.2376,-4.2376,-4.2376,0,0,-4.2021,-4.205,-4.2063,-4.2106,-4.2128,-4.2152,-4.2164,-4.2187,-4.2205,-4.2228,-4.2255,-4.2274,-4.2304,-4.233,-4.2342,-4.2344,-4.2376,-4.237,-4.2369,-4.2371,-4.2387,-4.2388,-4.2389,-4.2377,-4.2377,-4.2376,0,0,-4.2021,-4.2045,-4.2065,-4.2088,-4.2123,-4.2145,-4.215,-4.2188,-4.2202,-4.2231,-4.2249,-4.227,-4.231,-4.2332,-4.2348,-4.2361,-4.2372,-4.2368,-4.2366,-4.2381,-4.2382,-4.2383,-4.2389,-4.239,-4.2369,-4.2369,-4.2369,0,-4.2006,-4.2044,-4.2072,-4.2097,-4.2115,-4.2141,-4.2161,-4.2182,-4.2222,-4.2234,-4.2237,-4.2291,-4.2312,-4.2345,-4.2349,-4.236,-4.2367,-4.2363,-4.238,-4.2381,-4.2382,-4.2388,-4.239,-4.2368,-4.2368,-4.2369,-4.2369,0,-4.2026,-4.2052,-4.2064,-4.2106,-4.2126,-4.2148,-4.218,-4.2197,-4.2213,-4.2234,-4.2264,-4.2292,-4.2323,-4.2332,-4.2346,-4.2368,-4.2368,-4.2375,-4.2378,-4.2382,-4.2388,-4.2391,-4.2367,-4.2368,-4.2368,-4.2368,0,0,-4.2005,-4.2066,-4.207,-4.2091,-4.2134,-4.2154,-4.2178,-4.2211,-4.2226,-4.2254,-4.2275,-4.2311,-4.2319,-4.2337,-4.2354,-4.2368,-4.2379,-4.2374,-4.2375,-4.2374,-4.2406,-4.24,-4.2402,-4.2387,-4.2388,-4.2388,-4.2404,0,-4.201,-4.2057,-4.2085,-4.2119,-4.2145,-4.2171,-4.2192,-4.2221,-4.2242,-4.2266,-4.229,-4.2315,-4.2323,-4.2335,-4.235,-4.2374,-4.2385,-4.2373,-4.2406,-4.2407,-4.2398,-4.2405,-4.2399,-4.2412,-4.2406,-4.2406,-4.2407,0,-4.2022,-4.2053,-4.2091,-4.2135,-4.2147,-4.2165,-4.22,-4.2223,-4.2256,-4.2271,-4.2295,-4.2313,-4.234,-4.2342,-4.2379,-4.2371,-4.2386,-4.2401,-4.2402,-4.2405,-4.2407,-4.2409,-4.2417,-4.2419,-4.241,-4.241,-4.241,0,-4.2005,-4.2056,-4.2086,-4.2103,-4.2154,-4.2167,-4.2189,-4.2222,-4.2242,-4.2272,-4.2285,-4.2317,-4.2334,-4.2358,-4.2385,-4.2384,-4.242,-4.2424,-4.2433,-4.2433,-4.2438,-4.2438,-4.2449,-4.2449,-4.2448,-4.2448,-4.2448,0,-4.2008,-4.203,-4.2079,-4.2098,-4.2124,-4.2157,-4.2182,-4.2206,-4.2236,-4.226,-4.2284,-4.2305,-4.2339,-4.2364,-4.2385,-4.2414,-4.2421,-4.2434,-4.2439,-4.2432,-4.243,-4.2442,-4.2442,-4.2449,-4.2449,-4.2449,-4.2449,0,-4.1991,-4.2025,-4.2061,-4.2108,-4.2121,-4.2138,-4.2179,-4.2198,-4.2222,-4.2252,-4.2261,-4.2298,-4.233,-4.236,-4.2401,-4.2415,-4.2444,-4.2451,-4.2434,-4.2437,-4.2444,-4.2443,-4.2463,-4.2468,-4.2464,-4.2464,-4.2464,0,-4.1991,-4.201,-4.2061,-4.208,-4.2102,-4.2131,-4.2153,-4.2187,-4.2208,-4.225,-4.2264,-4.2298,-4.2327,-4.2377,-4.2407,-4.2439,-4.2447,-4.2452,-4.2451,-4.2445,-4.2448,-4.2447,-4.2449,-4.2451,-4.2451,-4.245,-4.245,0,-4.1987,-4.2004,-4.2035,-4.2074,-4.21,-4.213,-4.2162,-4.2175,-4.2215,-4.2238,-4.2273,-4.2295,-4.234,-4.2374,-4.241,-4.2431,-4.2448,-4.2451,-4.2455,-4.2447,-4.2437,-4.2444,-4.2433,-4.245,-4.245,-4.245,-4.245,-4.245,-4.1979,-4.1998,-4.2039,-4.2074,-4.2102,-4.2132,-4.2153,-4.2183,-4.2213,-4.2254,-4.2272,-4.2307,-4.2342,-4.2394,-4.2416,-4.2443,-4.2446,-4.2452,-4.2453,-4.2454,-4.2453,-4.2433,-4.245,-4.245,-4.245,-4.245,-4.245,0,-4.1978,-4.2006,-4.2038,-4.2084,-4.2112,-4.2128,-4.2165,-4.2187,-4.2218,-4.2251,-4.2281,-4.2322,-4.2356,-4.2391,-4.2426,-4.2442,-4.245,-4.245,-4.2449,-4.2454,-4.2447,-4.2441,-4.2443,-4.2443,-4.2443,-4.2443,-4.2443,-4.2443,-4.198,-4.2014,-4.2037,-4.2086,-4.2114,-4.2151,-4.2171,-4.2199,-4.2226,-4.2271,-4.2301,-4.2325,-4.2359,-4.2398,-4.243,-4.244,-4.2452,-4.245,-4.2461,-4.2454,-4.2454,-4.2454,-4.2448,-4.2452,-4.2452,-4.2466,-4.2466,-4.2466]}]]